Location: Zagreb
(45.8000°N, 16.0000°E)
Time: 14:53:24
(UTC+02:00)

Transit 2A - Pass Details

Date: 16 August 2022
Orbit: 601 x 956 km, 66.7° (Epoch: 25 September)

Event Time Altitude Azimuth Distance (km) Brightness Sun altitude
Rises 12:54:52 0° 251° (WSW) 3,069 9.2 57.8°
Reaches altitude 10° 12:57:46 10° 267° (W) 2,096 8.4 57.9°
Maximum altitude 13:01:21 21° 317° (NW) 1,431 7.4 57.9°
Drops below altitude 10° 13:04:48 10° 8° (N) 1,994 8.0 57.8°
Sets 13:07:29 0° 25° (NNE) 2,877 8.7 57.8°
